This is the latest recevied weather packets stored in our database for station/object SAVIL. If no packets are shown the sender has not sent any weather packets the latest 10 day(s).
| Time | Temp. | Humidity | Pressure | Rain* | Wind** | Luminosity | Snow |
|---|---|---|---|---|---|---|---|
| 1777483606 | 6.11° C | 40% | 1019.9 hPa | 0 mm | - | - | - |
| 1777482406 | 6.67° C | 38% | 1019.9 hPa | 0 mm | - | - | - |
| 1777481206 | 7.22° C | 37% | 1019.9 hPa | 0 mm | - | - | - |
| 1777480006 | 7.78° C | 37% | 1020 hPa | 0 mm | - | - | - |
| 1777478805 | 7.22° C | 37% | 1020 hPa | 0 mm | - | - | - |
| 1777477605 | 7.78° C | 36% | 1020.1 hPa | 0 mm | - | - | - |
| 1777476405 | 7.78° C | 35% | 1020.2 hPa | 0 mm | - | - | - |
| 1777475205 | 7.22° C | 35% | 1020.3 hPa | 0 mm | - | - | - |
| 1777474005 | 7.78° C | 36% | 1020.4 hPa | 0 mm | - | - | - |
| 1777472805 | 7.22° C | 35% | 1020.6 hPa | 0 mm | - | - | - |
| 1777471605 | 7.22° C | 37% | 1020.7 hPa | 0 mm | - | - | - |
| 1777470405 | 6.67° C | 36% | 1020.8 hPa | 0 mm | - | - | - |
| 1777469205 | 6.67° C | 36% | 1020.9 hPa | 0 mm | - | - | - |
| 1777468005 | 7.22° C | 39% | 1021 hPa | 0 mm | - | - | - |
| 1777466805 | 6.67° C | 37% | 1021 hPa | 0 mm | - | - | - |
| 1777465605 | 6.67° C | 38% | 1021.1 hPa | 0 mm | - | - | - |
| 1777464405 | 6.11° C | 36% | 1021.4 hPa | 0 mm | - | - | - |
| 1777463205 | 5.56° C | 37% | 1021.6 hPa | 0 mm | - | - | - |
| 1777462005 | 5.56° C | 39% | 1021.7 hPa | 0 mm | - | - | - |
| 1777460805 | 5.56° C | 41% | 1021.8 hPa | 0 mm | - | - | - |
| 1777459605 | 5.56° C | 42% | 1021.9 hPa | 0 mm | - | - | - |
| 1777458405 | 5° C | 41% | 1021.9 hPa | 0 mm | - | - | - |
| 1777457204 | 4.44° C | 40% | 1021.8 hPa | 0 mm | - | - | - |
| 1777456004 | 4.44° C | 42% | 1022 hPa | 0 mm | - | - | - |
| 1777454804 | 4.44° C | 44% | 1022 hPa | 0 mm | - | - | - |
* Rain latest hour (hover to see other rain measurements)
** Current wind speed in m/s (hover to see current wind gust speed)